QPF
0.05 0.07 0.08 0.09 0.11 0.15 0.18 0.19 0.18 0.15 0.12 0.09 0.07 0.05 0.06 0.05 0.03 0.03 0.01 0.00 0.00 0.00 0.01 0.01 0.02 0.02 0.03 0.03 0.04 0.05 0.07 0.09 0.11 0.14 0.15 0.14 0.12 0.11
0.07 0.09 0.09 0.10 0.11 0.14 0.16 0.17 0.17 0.17 0.13 0.07 0.05 0.04 0.05 0.03 0.03 0.03 0.01 0.01 0.00 0.00 0.00 0.01 0.01 0.02 0.03 0.03 0.03 0.03 0.03 0.04 0.05 0.07 0.09 0.09 0.09 0.08
0.08 0.10 0.11 0.13 0.14 0.14 0.14 0.15 0.16 0.16 0.12 0.06 0.05 0.05 0.05 0.04 0.03 0.02 0.01 0.01 0.00 0.00 0.00 0.00 0.01 0.02 0.03 0.03 0.04 0.03 0.03 0.02 0.02 0.03 0.04 0.04 0.05 0.06
0.11 0.12 0.12 0.11 0.12 0.13 0.14 0.15 0.15 0.14 0.11 0.08 0.06 0.05 0.05 0.04 0.03 0.01 0.01 0.01 0.00 0.00 0.00 0.00 0.00 0.00 0.01 0.01 0.02 0.02 0.02 0.01 0.01 0.01 0.02 0.02 0.03 0.04
0.10 0.11 0.11 0.11 0.11 0.11 0.12 0.13 0.14 0.12 0.11 0.08 0.07 0.05 0.04 0.03 0.02 0.01 0.00 0.00 0.00 0.00 0.00 0.00 0.00 0.00 0.00 0.00 0.00 0.00 0.00 0.00 0.00 0.00 0.01 0.01 0.01 0.01
0.09 0.10 0.11 0.13 0.13 0.14 0.13 0.11 0.10 0.10 0.10 0.08 0.06 0.04 0.03 0.03 0.02 0.01 0.00 0.00 0.00 0.00 0.00 0.00 0.00 0.00 0.00 0.00 0.00 0.00 0.00 0.00 0.00 0.00 0.00 0.00 0.00 0.00
0.11 0.12 0.13 0.15 0.16 0.15 0.14 0.11 0.09 0.08 0.08 0.06 0.05 0.03 0.02 0.02 0.01 0.01 0.00 0.00 0.00 0.00 0.00 0.00 0.00 0.00 0.00 0.00 0.00 0.00 0.00 0.00 0.00 0.00 0.00 0.00 0.00 0.00
0.10 0.10 0.10 0.11 0.12 0.13 0.14 0.12 0.10 0.08 0.06 0.05 0.03 0.02 0.01 0.01 0.01 0.01 0.00 0.00 0.00 0.00 0.00 0.00 0.00 0.00 0.00 0.00 0.00 0.00 0.00 0.00 0.00 0.00 0.00 0.00 0.00 0.00
0.05 0.08 0.09 0.11 0.11 0.11 0.11 0.10 0.10 0.09 0.06 0.04 0.03 0.02 0.01 0.00 0.00 0.00 0.00 0.00 0.00 0.00 0.00 0.00 0.00 0.01 0.00 0.00 0.00 0.00 0.00 0.00 0.00 0.00 0.00 0.00 0.00 0.00
0.04 0.05 0.07 0.10 0.11 0.08 0.07 0.07 0.07 0.05 0.03 0.02 0.01 0.01 0.00 0.00 0.00 0.00 0.00 0.00 0.00 0.00 0.00 0.00 0.00 0.00 0.00 0.00 0.00 0.00 0.00 0.00 0.00 0.00 0.00 0.00 0.00 0.00
0.05 0.04 0.03 0.05 0.07 0.05 0.03 0.03 0.02 0.01 0.00 0.00 0.00 0.00 0.00 0.00 0.00 0.00 0.00 0.00 0.00 0.00 0.00 0.00 0.00 0.00 0.01 0.01 0.00 0.00 0.00 0.00 0.00 0.00 0.00 0.00 0.00 0.00
0.04 0.04 0.03 0.02 0.02 0.02 0.02 0.01 0.01 0.00 0.00 0.00 0.00 0.00 0.00 0.00 0.00 0.00 0.00 0.00 0.00 0.00 0.00 0.00 0.00 0.00 0.00 0.01 0.00 0.01 0.01 0.00 0.00 0.00 0.00 0.00 0.00 0.00
0.03 0.02 0.02 0.01 0.00 0.00 0.00 0.00 0.00 0.00 0.00 0.00 0.00 0.00 0.00 0.00 0.00 0.00 0.00 0.00 0.00 0.00 0.00 0.00 0.00 0.00 0.00 0.00 0.00 0.00 0.01 0.01 0.01 0.01 0.01 0.01 0.00 0.00
0.02 0.01 0.01 0.01 0.00 0.00 0.00 0.00 0.00 0.00 0.00 0.00 0.00 0.00 0.00 0.00 0.00 0.00 0.00 0.00 0.00 0.00 0.00 0.00 0.00 0.00 0.00 0.00 0.00 0.00 0.00 0.00 0.00 0.01 0.01 0.01 0.01 0.01
0.01 0.00 0.00 0.00 0.00 0.00 0.00 0.00 0.00 0.00 0.00 0.00 0.00 0.00 0.00 0.00 0.00 0.00 0.00 0.00 0.00 0.00 0.00 0.00 0.00 0.00 0.00 0.00 0.00 0.00 0.00 0.00 0.00 0.01 0.02 0.02 0.02 0.02
0.01 0.00 0.00 0.00 0.00 0.00 0.00 0.00 0.00 0.00 0.00 0.00 0.00 0.00 0.00 0.00 0.00 0.00 0.00 0.00 0.00 0.00 0.00 0.00 0.00 0.00 0.00 0.00 0.00 0.00 0.00 0.00 0.00 0.01 0.02 0.03 0.02 0.03
0.00 0.00 0.00 0.00 0.00 0.00 0.00 0.00 0.00 0.00 0.00 0.00 0.00 0.00 0.00 0.00 0.00 0.00 0.00 0.00 0.00 0.00 0.00 0.00 0.00 0.00 0.00 0.00 0.00 0.00 0.00 0.00 0.00 0.00 0.01 0.01 0.02 0.02
0.00 0.00 0.00 0.00 0.00 0.00 0.00 0.00 0.00 0.00 0.00 0.00 0.00 0.00 0.00 0.00 0.00 0.00 0.00 0.00 0.00 0.00 0.00 0.00 0.00 0.00 0.00 0.00 0.00 0.00 0.00 0.00 0.00 0.00 0.00 0.01 0.01 0.02
0.00 0.00 0.00 0.00 0.00 0.00 0.00 0.00 0.00 0.00 0.00 0.00 0.00 0.00 0.00 0.00 0.00 0.00 0.00 0.00 0.00 0.00 0.00 0.00 0.00 0.00 0.00 0.00 0.00 0.00 0.00 0.00 0.00 0.00 0.00 0.00 0.01 0.01
0.00 0.00 0.00 0.00 0.00 0.00 0.00 0.00 0.00 0.00 0.00 0.00 0.00 0.00 0.00 0.00 0.00 0.00 0.00 0.00 0.00 0.00 0.00 0.00 0.00 0.00 0.00 0.00 0.00 0.00 0.00 0.00 0.00 0.00 0.00 0.00 0.01 0.01
0.00 0.00 0.00 0.00 0.00 0.00 0.00 0.00 0.00 0.00 0.00 0.00 0.00 0.00 0.00 0.00 0.00 0.00 0.00 0.00 0.00 0.00 0.00 0.00 0.00 0.00 0.00 0.00 0.00 0.00 0.00 0.00 0.00 0.00 0.00 0.00 0.00 0.00
0.00 0.00 0.00 0.00 0.00 0.00 0.00 0.00 0.00 0.00 0.00 0.00 0.00 0.00 0.00 0.00 0.00 0.00 0.00 0.00 0.00 0.00 0.00 0.00 0.00 0.00 0.00 0.00 0.00 0.00 0.00 0.00 0.00 0.00 0.00 0.00 0.00 0.00
0.00 0.00 0.00 0.00 0.00 0.00 0.00 0.00 0.00 0.00 0.00 0.00 0.00 0.00 0.00 0.00 0.00 0.00 0.00 0.00 0.00 0.00 0.00 0.00 0.00 0.00 0.00 0.00 0.00 0.00 0.00 0.00 0.00 0.00 0.00 0.00 0.00 0.00
MSLP
1005.51 1005.47 1005.55 1005.73 1006.00 1006.32 1006.67 1007.02 1007.37 1007.69 1008.00 1008.28 1008.56 1008.84 1009.14 1009.45 1009.77 1010.10 1010.42 1010.71 1010.94 1011.10 1011.18 1011.16 1011.08 1010.94 1010.78 1010.64 1010.56 1010.56 1010.68 1010.90 1011.23 1011.63 1012.07 1012.52 1012.93 1013.27
1004.99 1004.95 1005.03 1005.23 1005.53 1005.89 1006.30 1006.72 1007.13 1007.51 1007.86 1008.18 1008.49 1008.79 1009.10 1009.42 1009.77 1010.14 1010.50 1010.85 1011.16 1011.40 1011.57 1011.65 1011.65 1011.58 1011.49 1011.39 1011.33 1011.33 1011.41 1011.59 1011.85 1012.17 1012.52 1012.88 1013.19 1013.45
1004.53 1004.49 1004.59 1004.82 1005.16 1005.58 1006.04 1006.52 1006.98 1007.41 1007.79 1008.14 1008.45 1008.75 1009.05 1009.38 1009.72 1010.09 1010.47 1010.86 1011.21 1011.53 1011.78 1011.96 1012.06 1012.11 1012.11 1012.09 1012.09 1012.12 1012.19 1012.33 1012.52 1012.76 1013.01 1013.25 1013.46 1013.62
1004.18 1004.17 1004.30 1004.56 1004.94 1005.40 1005.91 1006.43 1006.94 1007.40 1007.82 1008.18 1008.50 1008.79 1009.07 1009.36 1009.68 1010.02 1010.38 1010.76 1011.14 1011.49 1011.81 1012.07 1012.28 1012.44 1012.55 1012.63 1012.71 1012.78 1012.88 1012.99 1013.13 1013.27 1013.42 1013.55 1013.65 1013.71
1004.01 1004.04 1004.20 1004.49 1004.90 1005.40 1005.94 1006.50 1007.04 1007.53 1007.96 1008.33 1008.65 1008.92 1009.18 1009.43 1009.69 1009.98 1010.29 1010.63 1010.99 1011.34 1011.69 1012.01 1012.29 1012.55 1012.76 1012.94 1013.10 1013.23 1013.35 1013.46 1013.55 1013.62 1013.68 1013.70 1013.70 1013.67
1004.07 1004.13 1004.33 1004.65 1005.08 1005.59 1006.15 1006.72 1007.27 1007.78 1008.23 1008.60 1008.92 1009.17 1009.40 1009.60 1009.80 1010.02 1010.26 1010.53 1010.82 1011.14 1011.47 1011.81 1012.14 1012.45 1012.75 1013.01 1013.24 1013.43 1013.58 1013.68 1013.74 1013.76 1013.74 1013.68 1013.60 1013.49
1004.34 1004.45 1004.67 1005.01 1005.45 1005.96 1006.51 1007.08 1007.63 1008.13 1008.58 1008.96 1009.27 1009.51 1009.71 1009.87 1010.01 1010.16 1010.31 1010.49 1010.70 1010.95 1011.23 1011.55 1011.88 1012.22 1012.56 1012.88 1013.16 1013.39 1013.56 1013.67 1013.71 1013.69 1013.62 1013.50 1013.36 1013.20
1004.79 1004.95 1005.20 1005.55 1005.97 1006.47 1006.99 1007.53 1008.05 1008.54 1008.98 1009.35 1009.66 1009.89 1010.08 1010.21 1010.30 1010.38 1010.46 1010.55 1010.68 1010.84 1011.05 1011.31 1011.61 1011.94 1012.29 1012.62 1012.93 1013.18 1013.37 1013.48 1013.51 1013.46 1013.36 1013.22 1013.04 1012.86
1005.32 1005.53 1005.82 1006.17 1006.59 1007.05 1007.53 1008.02 1008.50 1008.95 1009.37 1009.73 1010.03 1010.27 1010.44 1010.56 1010.64 1010.67 1010.69 1010.71 1010.76 1010.84 1010.98 1011.17 1011.42 1011.71 1012.03 1012.35 1012.65 1012.90 1013.08 1013.19 1013.21 1013.16 1013.04 1012.89 1012.71 1012.52
1005.83 1006.11 1006.44 1006.81 1007.21 1007.63 1008.06 1008.49 1008.91 1009.32 1009.70 1010.04 1010.33 1010.58 1010.76 1010.89 1010.96 1010.98 1010.98 1010.96 1010.95 1010.97 1011.04 1011.17 1011.35 1011.59 1011.86 1012.14 1012.41 1012.63 1012.80 1012.89 1012.90 1012.84 1012.73 1012.58 1012.41 1012.23
1006.22 1006.59 1006.97 1007.36 1007.76 1008.14 1008.52 1008.89 1009.25 1009.60 1009.94 1010.26 1010.55 1010.79 1010.99 1011.14 1011.23 1011.27 1011.27 1011.25 1011.22 1011.21 1011.23 1011.31 1011.44 1011.62 1011.83 1012.05 1012.27 1012.44 1012.57 1012.63 1012.63 1012.57 1012.46 1012.32 1012.17 1012.01
1006.46 1006.92 1007.36 1007.78 1008.18 1008.54 1008.87 1009.19 1009.50 1009.79 1010.09 1010.38 1010.66 1010.92 1011.14 1011.31 1011.44 1011.52 1011.54 1011.54 1011.52 1011.51 1011.52 1011.56 1011.65 1011.77 1011.92 1012.08 1012.23 1012.35 1012.43 1012.45 1012.42 1012.35 1012.25 1012.13 1012.00 1011.86
1006.54 1007.08 1007.58 1008.04 1008.44 1008.79 1009.10 1009.37 1009.63 1009.89 1010.16 1010.42 1010.69 1010.96 1011.20 1011.41 1011.57 1011.69 1011.77 1011.81 1011.82 1011.83 1011.84 1011.88 1011.93 1012.01 1012.11 1012.20 1012.28 1012.34 1012.36 1012.34 1012.28 1012.20 1012.10 1011.99 1011.88 1011.77
1006.47 1007.07 1007.63 1008.11 1008.53 1008.88 1009.18 1009.44 1009.68 1009.91 1010.16 1010.41 1010.68 1010.95 1011.21 1011.44 1011.65 1011.81 1011.94 1012.02 1012.08 1012.12 1012.15 1012.19 1012.23 1012.28 1012.33 1012.37 1012.39 1012.38 1012.35 1012.28 1012.19 1012.09 1011.99 1011.90 1011.82 1011.72
1006.30 1006.94 1007.52 1008.02 1008.46 1008.82 1009.12 1009.39 1009.63 1009.87 1010.11 1010.37 1010.64 1010.91 1011.19 1011.45 1011.68 1011.88 1012.04 1012.17 1012.27 1012.34 1012.40 1012.45 1012.49 1012.52 1012.54 1012.53 1012.50 1012.45 1012.36 1012.26 1012.14 1012.03 1011.93 1011.85 1011.78 1011.71
1006.06 1006.70 1007.27 1007.78 1008.23 1008.61 1008.94 1009.23 1009.50 1009.76 1010.03 1010.31 1010.59 1010.88 1011.17 1011.44 1011.68 1011.90 1012.09 1012.25 1012.38 1012.48 1012.57 1012.63 1012.68 1012.70 1012.70 1012.67 1012.60 1012.51 1012.39 1012.26 1012.13 1012.01 1011.91 1011.84 1011.79 1011.74
1005.77 1006.36 1006.91 1007.41 1007.86 1008.26 1008.63 1008.97 1009.29 1009.61 1009.92 1010.24 1010.55 1010.86 1011.15 1011.42 1011.68 1011.90 1012.10 1012.27 1012.42 1012.54 1012.64 1012.73 1012.78 1012.81 1012.80 1012.76 1012.68 1012.57 1012.44 1012.29 1012.15 1012.03 1011.94 1011.88 1011.84 1011.81
1005.41 1005.94 1006.44 1006.92 1007.37 1007.80 1008.22 1008.62 1009.01 1009.40 1009.78 1010.14 1010.49 1010.82 1011.13 1011.40 1011.65 1011.87 1012.06 1012.24 1012.39 1012.52 1012.64 1012.74 1012.80 1012.84 1012.85 1012.81 1012.73 1012.62 1012.49 1012.35 1012.22 1012.10 1012.02 1011.96 1011.93 1011.90
1004.98 1005.44 1005.89 1006.35 1006.80 1007.26 1007.73 1008.20 1008.68 1009.14 1009.59 1010.01 1010.41 1010.76 1011.07 1011.35 1011.58 1011.79 1011.98 1012.14 1012.29 1012.44 1012.56 1012.67 1012.76 1012.82 1012.84 1012.82 1012.76 1012.67 1012.56 1012.43 1012.31 1012.20 1012.12 1012.06 1012.03 1012.00
1004.48 1004.88 1005.29 1005.72 1006.18 1006.68 1007.21 1007.75 1008.30 1008.84 1009.36 1009.83 1010.27 1010.64 1010.96 1011.23 1011.46 1011.65 1011.82 1011.98 1012.13 1012.27 1012.41 1012.54 1012.65 1012.73 1012.78 1012.79 1012.76 1012.69 1012.60 1012.49 1012.38 1012.29 1012.21 1012.15 1012.10 1012.05
1003.92 1004.28 1004.67 1005.10 1005.58 1006.11 1006.69 1007.29 1007.91 1008.51 1009.08 1009.60 1010.06 1010.44 1010.76 1011.02 1011.24 1011.41 1011.57 1011.72 1011.87 1012.02 1012.18 1012.33 1012.46 1012.57 1012.65 1012.69 1012.69 1012.66 1012.59 1012.50 1012.41 1012.31 1012.23 1012.16 1012.09 1012.02
1003.34 1003.69 1004.08 1004.52 1005.02 1005.59 1006.21 1006.87 1007.53 1008.17 1008.77 1009.30 1009.77 1010.15 1010.46 1010.70 1010.90 1011.06 1011.21 1011.35 1011.51 1011.67 1011.84 1012.01 1012.18 1012.32 1012.43 1012.50 1012.53 1012.52 1012.47 1012.40 1012.32 1012.23 1012.14 1012.05 1011.96 1011.86
1002.79 1003.15 1003.56 1004.03 1004.56 1005.17 1005.82 1006.50 1007.18 1007.83 1008.43 1008.95 1009.40 1009.75 1010.03 1010.25 1010.42 1010.57 1010.70 1010.85 1011.01 1011.19 1011.38 1011.58 1011.77 1011.94 1012.07 1012.17 1012.23 1012.24 1012.22 1012.17 1012.10 1012.01 1011.92 1011.82 1011.71 1011.58
Thickness
5691 5691 5691 5694 5693 5693 5692 5690 5685 5682 5680 5681 5683 5683 5684 5682 5680 5681 5680 5677 5678 5680 5682 5684 5686 5688 5690 5692 5694 5696 5698 5699 5699 5700 5699 5699 5698 5698
5685 5685 5686 5688 5688 5688 5687 5687 5684 5681 5677 5677 5676 5676 5675 5675 5671 5672 5669 5668 5668 5669 5671 5672 5674 5676 5678 5680 5682 5684 5685 5686 5688 5688 5688 5689 5689 5689
5681 5681 5681 5682 5681 5682 5681 5680 5679 5676 5670 5668 5668 5666 5665 5664 5663 5662 5663 5662 5659 5659 5660 5661 5663 5665 5666 5668 5669 5671 5673 5675 5676 5677 5678 5678 5679 5680
5676 5676 5676 5676 5675 5675 5674 5673 5671 5669 5665 5659 5657 5656 5655 5654 5654 5654 5655 5655 5652 5649 5650 5651 5653 5654 5656 5657 5658 5660 5662 5663 5665 5666 5667 5669 5669 5670
5670 5670 5670 5669 5667 5666 5666 5664 5663 5662 5658 5654 5650 5648 5647 5647 5646 5646 5646 5646 5647 5642 5642 5642 5643 5645 5646 5647 5648 5650 5651 5654 5655 5657 5657 5658 5660 5661
5661 5662 5662 5661 5659 5658 5657 5655 5654 5651 5649 5646 5643 5641 5639 5638 5639 5639 5638 5639 5640 5640 5637 5637 5636 5637 5638 5639 5640 5641 5643 5644 5646 5647 5648 5650 5651 5652
5651 5651 5651 5650 5649 5649 5649 5646 5645 5643 5641 5639 5636 5634 5632 5631 5633 5635 5633 5633 5632 5636 5636 5635 5635 5635 5634 5632 5632 5633 5634 5636 5637 5639 5640 5641 5642 5643
5640 5639 5638 5638 5637 5636 5635 5635 5636 5635 5633 5631 5630 5627 5625 5627 5628 5630 5629 5630 5627 5628 5631 5631 5633 5631 5629 5627 5623 5625 5626 5628 5629 5631 5632 5633 5633 5635
5631 5629 5629 5626 5626 5624 5622 5622 5621 5622 5623 5625 5623 5621 5620 5620 5622 5623 5623 5625 5622 5622 5625 5625 5627 5625 5624 5617 5617 5618 5619 5620 5621 5623 5623 5624 5625 5626
5622 5620 5618 5616 5616 5615 5614 5612 5611 5610 5612 5614 5613 5612 5612 5612 5614 5615 5614 5613 5614 5616 5620 5620 5621 5620 5620 5615 5611 5612 5612 5613 5613 5614 5614 5615 5616 5617
5612 5611 5610 5609 5605 5605 5606 5604 5601 5598 5598 5599 5600 5600 5600 5602 5606 5610 5610 5613 5612 5611 5614 5616 5615 5616 5615 5613 5609 5608 5607 5606 5605 5604 5604 5604 5605 5607
5603 5602 5601 5600 5597 5598 5599 5598 5595 5594 5593 5593 5592 5593 5595 5596 5599 5605 5609 5611 5610 5608 5606 5610 5611 5613 5611 5609 5608 5606 5605 5602 5600 5597 5596 5595 5594 5598
5598 5596 5593 5588 5588 5590 5592 5592 5590 5590 5589 5589 5589 5590 5591 5593 5596 5597 5601 5606 5606 5603 5603 5606 5607 5608 5608 5605 5603 5601 5600 5598 5596 5592 5590 5586 5583 5582
5595 5593 5587 5580 5580 5582 5584 5581 5582 5585 5587 5588 5588 5589 5589 5590 5590 5590 5591 5592 5594 5594 5593 5597 5598 5598 5600 5599 5596 5595 5593 5590 5588 5586 5583 5578 5575 5570
5590 5585 5578 5573 5573 5575 5573 5575 5578 5584 5585 5585 5585 5585 5585 5584 5584 5584 5584 5584 5586 5587 5586 5587 5591 5591 5592 5590 5589 5587 5586 5583 5580 5577 5574 5571 5567 5562
5580 5573 5569 5568 5572 5570 5568 5573 5580 5583 5583 5583 5582 5582 5581 5581 5583 5584 5585 5585 5584 5582 5579 5579 5580 5582 5584 5581 5582 5579 5577 5575 5572 5569 5567 5564 5559 5554
5574 5572 5571 5571 5573 5572 5574 5577 5579 5578 5580 5580 5580 5579 5580 5580 5581 5582 5582 5583 5583 5581 5579 5576 5575 5574 5572 5573 5573 5572 5570 5568 5565 5561 5559 5558 5553 5547
5572 5574 5574 5576 5576 5576 5577 5576 5577 5578 5579 5579 5579 5579 5579 5578 5577 5578 5578 5579 5578 5577 5576 5575 5575 5574 5572 5567 5560 5562 5562 5560 5559 5555 5553 5551 5547 5541
5572 5575 5576 5577 5578 5578 5578 5578 5578 5578 5578 5578 5578 5577 5577 5576 5575 5574 5575 5574 5572 5571 5570 5569 5569 5570 5570 5567 5556 5550 5552 5551 5551 5550 5547 5544 5540 5535
5575 5576 5577 5578 5580 5580 5580 5580 5579 5577 5576 5576 5576 5575 5575 5574 5573 5572 5571 5570 5568 5567 5565 5563 5561 5560 5558 5556 5555 5552 5543 5543 5542 5540 5539 5538 5536 5529
5577 5578 5579 5580 5581 5581 5581 5580 5579 5577 5575 5575 5574 5572 5573 5572 5571 5570 5568 5558 5562 5563 5561 5558 5552 5546 5549 5549 5551 5550 5545 5535 5531 5529 5528 5529 5527 5525
5578 5579 5581 5582 5581 5582 5581 5580 5579 5576 5574 5573 5573 5571 5571 5570 5568 5566 5565 5561 5560 5559 5557 5554 5547 5546 5547 5546 5545 5544 5541 5535 5529 5523 5518 5515 5513 5512
5579 5581 5582 5582 5582 5581 5581 5579 5579 5577 5575 5574 5573 5570 5569 5567 5566 5564 5562 5560 5558 5555 5552 5551 5548 5544 5544 5542 5540 5539 5536 5534 5532 5527 5521 5511 5505 5499